TEMELIN Weather Reports


Display with metric or nautical units.
time (UTC)temp
F
wind
direction
speed
MPH
gust
MPH
rain 1hr
in
rain 24hr
in
rain mn
in
humidity
%
barometer
mb
20260901151817 72 290 12.0 0.0 0.00 0.00 0.00 40
20260901142029 73 300 12.0 22.0 0.00 0.00 0.00 40
20260901131920 72 290 9.0 0.0 0.00 0.00 0.00 43
20260901121818 72 280 12.0 0.0 0.00 0.00 0.00 46
20260901111919 68 270 14.0 0.0 0.00 0.00 0.00 49
20260901102119 68 290 14.0 0.0 0.00 0.00 0.00 52
20260901091818 68 300 12.0 0.0 0.00 0.00 0.00 60
20260901082031 64 270 7.0 0.0 0.00 0.00 0.00 67
20260901072031 63 260 7.0 0.0 0.00 0.00 0.00 72
20260901061818 59 240 7.0 0.0 0.00 0.00 0.00 77
20260901051918 57 300 2.0 0.0 0.00 0.00 0.00 76
20260901042118 57 250 7.0 0.0 0.00 0.00 0.00 76
20260901031818 59 250 7.0 0.0 0.00 0.00 0.00 72
20260901022029 61 260 7.0 0.0 0.00 0.00 0.00 67
20260901012031 61 260 5.0 0.0 0.00 0.00 0.00 67
20260901001818 61 280 9.0 0.0 0.00 0.00 0.00 67
20260831231933 63 280 7.0 0.0 0.00 0.00 0.00 67
20260831222121 64 250 9.0 0.0 0.00 0.00 0.00 63
20260831211818 63 240 5.0 0.0 0.00 0.00 0.00 72
20260831202029 64 270 7.0 0.0 0.00 0.00 0.00 63
20260831192031 66 310 5.0 0.0 0.00 0.00 0.00 63
20260831181819 68 320 5.0 0.0 0.00 0.00 0.00 60
20260831172030 72 300 5.0 0.0 0.00 0.00 0.00 53
20260831162121 73 270 12.0 0.0 0.00 0.00 0.00 43